This demonstration page uses our WeatherBlox Daily Observations layout. Learn more.

Left ArrowRight Arrow

38.89511, -77.03637

Hourly Observations for October 27, 2018

Temp ( °F °C ) Dew Point ( °F °C ) Humidity (%) Winds ( mph kmh ) Pressure ( in mb ) Visibility ( mi km ) Precip ( " mm )
12:04 am 00:04 Cloudy with Rain 50 10 47 8.3 89 89 N 12 19 29.80 1009 8 13 0.01 0.25
12:52 am 00:52 Cloudy with Rain 50 10 47 8.3 89 89 NNE 13 20 29.75 1008 4 6 0.06 1.52
1:23 am 01:23 Cloudy with Light Rain 51 10.6 48 8.9 89 89 NNE 15 24 29.74 1007 4 6 0.04 1.02
1:52 am 01:52 Cloudy with Light Rain 50 10 48 8.9 93 93 NNE 16 26 29.70 1006 4 6 0.06 1.52
2:52 am 02:52 Cloudy with Light Rain 51 10.6 48 8.9 89 89 NNE 13 20 29.67 1005 6 10 0.05 1.27
3:45 am 03:45 Cloudy with Light Rain 53 11.7 50 10 89 89 NNE 14 22 29.62 1003 4 6 0.05 1.27
3:52 am 03:52 Cloudy with Light Rain 53 11.7 50 10 89 89 NNE 12 19 29.60 1003 5 8 0.05 1.27
4:04 am 04:04 Cloudy with Light Rain 53 11.7 51 10.6 93 93 NNE 13 20 29.59 1002 5 8 0.01 0.25
4:52 am 04:52 Cloudy with Light Rain 54 12.2 50 10 87 87 NE 17 28 29.58 1002 5 8 0.03 0.76
5:31 am 05:31 Cloudy with Light Rain 53 11.7 50 10 89 89 NE 13 20 29.59 1002 10 16 N/A
5:52 am 05:52 Cloudy with Light Rain 53 11.7 49 9.4 86 86 NNE 16 26 29.58 1002 4 6 0.02 0.51
6:52 am 06:52 Cloudy with Light Rain 53 11.7 49 9.4 86 86 NNE 15 24 29.56 1001 10 16 0.02 0.51
7:28 am 07:28 Cloudy with Light Rain 53 11.7 49 9.4 86 86 N 15 24 29.56 1001 7 11 0.01 0.25
7:52 am 07:52 Cloudy with Rain 53 11.7 49 9.4 86 86 N 14 22 29.57 1001 6 10 0.04 1.02
8:26 am 08:26 Cloudy with Heavy Rain 53 11.7 49 9.4 86 86 NNW 14 22 29.59 1002 3 4 0.06 1.52
8:40 am 08:40 Cloudy with Heavy Rain 53 11.7 49 9.4 86 86 NNW 15 24 29.59 1002 3 5 0.08 2.03
8:45 am 08:45 Cloudy with Rain 52 11.1 49 9.4 89 89 NNW 15 24 29.59 1002 3 4 0.10 2.54
8:49 am 08:49 Cloudy with Rain 52 11 48 9 88 88 NNW 15 24 29.59 1002 3 5 0.11 2.79
8:52 am 08:52 Cloudy with Light Rain 52 11.1 49 9.4 89 89 NNW 15 24 29.58 1002 4 6 0.11 2.79
9:01 am 09:01 Cloudy with Light Rain 52 11.1 49 9.4 89 89 NNW 16 26 29.59 1002 4 6 0.01 0.25
9:05 am 09:05 Cloudy with Heavy Rain 52 11.1 49 9.4 89 89 NNW 17 28 29.59 1002 3 4 0.03 0.76
9:12 am 09:12 Cloudy with Rain 52 11.1 49 9.4 89 89 NNW 14 22 29.59 1002 3 5 0.04 1.02
9:27 am 09:27 Cloudy with Light Rain 52 11.1 49 9.4 89 89 NNW 14 22 29.59 1002 4 6 0.05 1.27
9:52 am 09:52 Cloudy with Light Rain 52 11.1 49 9.4 89 89 NNW 14 22 29.57 1002 4 6 0.08 2.03
10:52 am 10:52 Cloudy with Light Rain 51 10.6 48 8.9 89 89 NNW 18 30 29.57 1001 7 11 0.01 0.25
11:09 am 11:09 Cloudy with Light Rain 51 10.6 47 8.3 86 86 NW 20 31 29.56 1001 7 11 N/A
11:24 am 11:24 Cloudy with Rain 51 10.6 47 8.3 86 86 NW 14 22 29.59 1002 3 4 N/A
11:52 am 11:52 Cloudy with Light Rain 51 10.6 47 8.3 86 86 NW 14 22 29.59 1002 3 5 0.03 0.76
12:52 pm 12:52 Cloudy 51 10.6 47 8.3 86 86 NW 16 26 29.59 1002 10 16 N/A
1:16 pm 13:16 Cloudy with Light Rain 52 11.1 47 8.3 83 83 NW 16 26 29.59 1002 9 14 N/A
1:36 pm 13:36 Cloudy with Light Rain 51 10.6 47 8.3 86 86 NNW 21 33 29.62 1003 6 10 N/A
1:52 pm 13:52 Cloudy with Light Rain 52 11.1 47 8.3 83 83 NNW 20 31 29.60 1002 9 14 N/A
2:26 pm 14:26 Cloudy 53 11.7 48 8.9 83 83 NNW 16 26 29.62 1003 10 16 N/A
2:52 pm 14:52 Cloudy 53 11.7 46 7.8 77 77 NNW 18 30 29.60 1003 10 16 N/A
3:13 pm 15:13 Cloudy 53 11.7 45 7.2 74 74 NW 14 22 29.62 1003 10 16 N/A
3:22 pm 15:22 Cloudy 53 11.7 46 7.8 77 77 NNW 18 30 29.62 1003 10 16 N/A
3:52 pm 15:52 Cloudy 53 11.7 45 7.2 74 74 NNW 10 17 29.62 1003 10 16 N/A
4:52 pm 16:52 Cloudy 53 11.7 44 6.7 72 72 NW 10 17 29.64 1004 10 16 N/A
5:52 pm 17:52 Cloudy 53 11.7 44 6.7 72 72 NNW 8 13 29.65 1004 10 16 N/A
6:52 pm 18:52 Mostly Cloudy 52 11.1 44 6.7 75 75 NW 9 15 29.67 1005 10 16 N/A
6:58 pm 18:58 Partly Cloudy 51 10.6 44 6.7 77 77 NW 8 13 29.68 1005 10 16 N/A
7:52 pm 19:52 Mostly Cloudy 51 10.6 44 6.7 77 77 NW 7 11 29.68 1005 10 16 N/A
8:52 pm 20:52 Mostly Cloudy 50 10 44 6.7 80 80 N 5 7 29.70 1006 10 16 N/A
9:52 pm 21:52 Mostly Cloudy 51 10.6 45 7.2 80 80 SW 3 6 29.71 1006 10 16 N/A
10:52 pm 22:52 Mostly Cloudy 51 10.6 44 6.7 77 77 SW 3 6 29.72 1007 10 16 N/A
11:52 pm 23:52 Cloudy 51 10.6 45 7.2 80 80 SSW 3 6 29.74 1007 10 16 N/A

Powered by AerisWeather